Wind_Speed
24 24 24 22 22 21 22 19 18 19 17 16 15 15 15 15 15 15 16 17 17 15 14 13 13 12 11 11 11 10 10 11 13 15 14 14 12 11 11 12 14 15 16
18 22 25 23 22 24 22 20 18 19 19 17 17 15 17 16 15 16 15 15 15 15 15 15 15 14 15 14 13 12 11 12 13 15 14 13 11 12 13 15 17 17 17
21 18 22 24 23 22 20 17 17 17 19 17 16 15 16 17 16 15 15 14 15 15 13 15 11 12 13 13 12 11 10 11 12 11 10 11 13 13 12 12 12 12 12
25 21 19 22 23 22 19 18 17 16 18 18 17 16 16 18 17 16 16 16 16 14 13 15 15 14 11 10 11 11 11 12 11 11 13 13 11 11 13 14 12 12 10
29 27 22 21 21 21 21 19 20 19 19 17 17 18 17 18 20 20 18 18 17 15 14 15 18 16 14 14 14 13 13 12 12 14 13 11 11 13 14 15 13 11 11
32 30 25 21 21 22 21 21 21 19 18 20 19 18 17 17 17 18 17 17 18 16 17 15 18 19 19 17 15 13 14 15 13 14 15 13 13 13 13 13 12 11 10
35 31 27 22 22 21 21 20 20 19 18 21 21 20 18 17 14 15 16 17 15 14 15 14 16 17 19 18 18 18 16 13 13 15 15 16 16 15 13 9 7 9 10
33 33 29 24 22 23 22 22 22 21 16 19 22 21 20 19 15 11 12 15 17 17 16 20 17 17 17 16 16 15 15 15 16 17 17 17 15 12 9 8 6 5 8
29 27 20 23 16 15 16 22 26 27 26 22 23 23 22 23 20 13 9 16 21 21 18 19 18 18 17 19 17 18 18 17 17 17 15 13 11 9 8 7 6 6 8
8 17 13 19 17 16 13 14 14 14 16 17 21 23 18 19 21 23 19 18 19 20 20 20 19 20 22 19 15 15 14 12 12 11 9 8 8 8 8 8 9 10 12
9 12 10 8 8 11 11 9 11 11 13 15 16 17 16 17 19 19 16 17 15 16 16 16 15 14 11 8 6 7 7 8 8 8 9 9 8 8 9 12 14 15 15
10 12 17 11 6 7 5 7 8 8 10 11 11 12 14 16 14 13 12 15 11 11 12 11 11 10 10 8 5 4 4 6 8 9 10 11 10 11 14 16 16 15 14
8 11 12 9 9 5 5 4 5 7 7 6 7 7 8 9 9 9 9 9 12 14 15 15 14 12 10 5 2 4 5 8 9 11 13 14 14 13 12 12 12 11 10
9 7 8 10 6 7 6 5 6 7 8 7 6 6 7 7 7 6 6 6 6 9 11 8 4 4 3 3 2 4 8 11 12 14 14 14 12 10 9 8 8 7 8
8 5 6 6 5 7 3 6 8 9 10 10 10 8 5 4 5 4 3 1 3 2 4 5 7 8 6 7 10 10 12 13 13 12 11 10 9 8 6 6 6 7 7
3 5 4 1 2 1 2 3 2 3 4 5 9 11 11 11 11 8 4 3 5 5 5 3 7 9 8 10 11 12 12 12 12 10 8 7 6 5 5 6 7 8 10
5 4 3 3 3 4 3 3 3 3 2 2 3 2 9 4 1 5 4 3 3 6 8 9 10 12 11 11 11 11 9 9 8 6 5 4 3 4 6 7 8 9 10
4 4 3 2 3 4 4 5 6 7 6 4 2 4 6 7 8 7 9 9 5 6 9 11 12 10 8 8 8 7 7 6 5 3 3 3 4 6 7 8 10 11 12
2 1 1 1 1 0 1 1 3 4 5 4 3 3 4 5 6 8 9 5 6 11 12 13 10 7 6 8 7 6 5 4 3 2 2 4 6 8 9 11 12 12 12
3 4 5 5 4 4 5 5 5 5 5 5 4 4 6 5 3 2 3 5 8 10 12 11 9 7 7 8 7 5 4 3 2 3 5 6 8 9 10 11 12 12 12
6 7 8 8 8 9 9 8 8 7 7 7 7 6 5 3 1 2 1 3 6 8 9 10 9 9 8 8 8 7 6 4 3 3 5 6 7 9 10 10 10 11 10
6 7 8 9 10 11 12 12 13 12 11 11 11 10 7 3 1 0 1 4 7 8 9 9 9 8 6 5 6 6 4 4 4 4 5 6 7 7 7 8 8 7 6
9 9 9 9 9 11 11 11 12 12 11 10 11 13 12 9 6 5 5 5 6 6 7 7 6 6 6 6 6 5 5 4 4 4 4 5 4 4 4 4 4 4 4
13 13 12 13 12 13 13 13 9 10 11 11 11 12 14 15 13 10 8 8 7 6 5 5 5 5 6 6 5 5 4 4 3 3 2 3 4 5 4 4 4 7 7
17 16 15 15 15 15 17 16 15 13 12 14 14 13 14 17 17 14 11 11 9 5 3 4 5 5 5 5 5 5 4 2 2 1 1 2 4 5 5 6 9 8 7
13 16 18 19 20 22 23 20 18 17 17 14 13 14 13 15 16 15 13 14 11 6 5 5 5 5 5 5 6 4 3 2 1 1 1 2 3 5 6 7 7 6 5
Wind_Direction
224 224 220 222 218 226 226 229 234 231 228 227 228 234 232 233 240 254 255 249 252 259 258 257 258 257 254 263 270 283 293 295 299 305 312 317 313 313 324 330 326 321 323
217 224 226 223 226 223 227 234 235 229 226 234 239 236 232 236 244 255 248 242 248 257 259 260 265 263 262 261 267 280 290 296 300 303 308 306 312 309 313 317 323 323 322
216 218 224 225 223 220 226 232 233 235 230 235 234 236 233 236 246 257 244 244 249 258 256 250 260 257 262 261 259 268 278 291 294 298 303 311 315 316 315 321 327 331 328
220 221 226 225 224 226 228 228 230 232 234 240 242 246 242 242 248 251 246 251 255 257 258 250 244 258 259 261 261 265 270 276 285 288 299 308 312 317 321 327 336 349 347
225 222 228 229 225 224 227 234 235 238 240 239 237 240 242 246 247 249 249 250 255 257 259 260 251 248 259 263 269 264 273 272 279 287 294 296 308 313 318 325 338 352 340
226 226 222 225 221 222 229 237 237 236 240 240 242 241 243 248 249 251 251 254 254 256 263 261 259 253 252 262 259 261 274 280 278 282 287 285 297 305 310 317 337 350 356
227 223 218 216 217 220 229 237 239 239 249 250 245 247 251 252 250 241 249 245 249 259 256 257 270 266 251 254 265 268 274 273 278 281 284 284 292 296 301 310 338 346 351
230 213 209 209 220 229 235 237 243 234 256 261 251 249 257 249 241 231 242 251 252 262 272 255 267 265 249 255 264 266 270 274 276 274 273 279 286 290 296 308 319 331 330
216 205 218 217 219 230 238 239 240 241 254 271 261 252 243 243 239 233 262 262 260 257 255 255 262 263 259 255 260 264 267 269 272 276 279 282 285 287 290 293 300 306 320
289 227 252 227 234 238 236 235 243 239 243 257 263 247 230 234 254 264 249 260 255 254 246 246 250 251 256 260 261 261 260 261 265 270 274 271 273 279 280 282 292 306 316
227 246 211 172 202 211 221 226 233 241 250 258 257 258 265 263 259 264 258 258 250 250 242 241 241 238 237 242 250 257 256 261 260 253 258 260 260 267 279 292 301 308 315
187 222 204 210 214 243 237 210 222 240 247 248 250 254 257 258 259 268 259 250 246 241 232 219 211 213 202 184 185 227 228 240 235 238 244 252 262 277 290 298 302 305 308
222 234 243 234 230 214 264 232 229 237 230 232 237 242 253 254 258 262 256 250 244 240 233 232 227 230 206 168 185 236 238 242 242 246 255 266 275 283 288 294 299 303 303
204 217 218 235 236 215 216 224 231 223 231 230 233 233 241 242 247 234 216 218 232 240 244 203 215 198 209 151 240 282 263 246 249 257 266 272 273 278 286 287 293 297 296
173 171 204 202 215 213 225 239 221 222 226 226 226 214 203 178 135 121 100 45 277 252 269 243 217 220 207 241 250 243 243 246 253 257 261 267 278 286 291 293 299 307 308
136 137 133 96 251 357 44 9 36 14 1 310 244 204 182 175 162 149 125 338 312 283 272 261 254 231 216 224 232 241 246 255 256 254 258 259 264 278 302 321 330 334 336
139 146 143 127 108 92 73 52 10 12 7 3 359 245 226 217 277 318 325 309 314 281 248 230 225 225 231 237 245 248 246 249 244 249 250 262 293 328 339 337 340 340 338
106 105 110 99 84 81 73 67 65 60 51 37 334 282 278 273 278 280 276 295 287 241 241 240 232 230 235 235 235 235 235 227 230 251 280 311 327 337 336 337 340 340 345
55 67 103 56 52 236 234 322 18 20 23 23 38 16 355 311 278 265 256 235 230 224 208 211 221 234 252 266 259 239 236 228 227 244 309 333 341 339 341 342 341 343 346
294 270 277 281 283 274 266 269 279 301 313 331 323 342 358 355 359 327 251 218 210 215 211 216 223 243 256 256 247 233 221 227 274 326 331 336 340 341 339 337 336 337 341
285 275 274 279 282 278 275 274 268 268 278 278 279 271 314 339 48 62 115 185 193 215 225 235 243 248 244 240 237 227 221 228 253 276 303 316 325 329 329 328 327 333 341
274 274 278 276 269 267 265 266 269 272 273 272 271 254 259 279 260 300 218 216 219 233 253 265 267 260 242 219 219 231 239 254 266 289 299 311 318 323 331 331 333 340 348
288 285 284 281 271 262 263 275 270 273 274 266 255 251 248 255 248 258 259 232 235 255 272 269 258 246 232 225 223 231 243 259 276 297 304 302 322 341 342 342 342 353 19
281 283 282 274 272 264 265 269 278 265 265 264 265 262 251 247 243 242 247 240 245 274 278 257 242 241 239 234 235 234 232 247 266 287 328 0 3 4 2 11 51 63 57
276 272 270 273 271 265 259 259 257 262 265 260 259 253 248 245 232 226 233 227 234 244 239 241 238 227 226 233 226 219 229 246 271 309 10 27 28 32 47 76 80 74 68
281 278 282 268 268 273 269 261 254 257 260 258 258 257 261 251 236 225 228 225 222 215 222 222 221 222 223 222 213 212 226 224 217 170 42 47 48 52 62 95 97 87 83
Height
1568 1571 1574 1577 1580 1583 1586 1588 1590 1592 1593 1595 1597 1599 1600 1601 1603 1604 1604 1606 1606 1608 1608 1607 1607 1608 1608 1608 1608 1608 1608 1608 1606 1605 1603 1602 1601 1599 1598 1596 1595 1593 1591
1566 1568 1572 1575 1577 1580 1583 1586 1588 1589 1591 1592 1594 1595 1597 1598 1600 1600 1601 1602 1603 1605 1605 1605 1605 1605 1605 1605 1606 1606 1606 1605 1603 1602 1600 1600 1599 1597 1596 1595 1593 1591 1589
1563 1566 1569 1572 1575 1577 1580 1583 1585 1587 1588 1590 1591 1592 1593 1595 1597 1597 1598 1599 1599 1600 1601 1602 1603 1602 1603 1603 1602 1602 1602 1602 1601 1600 1599 1598 1597 1595 1594 1592 1591 1589 1587
1559 1562 1565 1568 1572 1575 1578 1581 1583 1584 1585 1587 1588 1589 1590 1592 1594 1595 1595 1596 1596 1597 1597 1598 1599 1600 1600 1600 1600 1600 1600 1599 1599 1599 1598 1596 1595 1593 1591 1589 1589 1587 1586
1554 1558 1561 1565 1568 1571 1574 1577 1579 1581 1582 1583 1584 1585 1587 1588 1589 1590 1591 1592 1593 1593 1594 1595 1596 1596 1596 1596 1597 1597 1598 1597 1597 1596 1595 1595 1593 1591 1589 1587 1586 1586 1585
1549 1553 1557 1562 1564 1567 1570 1573 1575 1577 1579 1580 1581 1582 1583 1583 1584 1585 1586 1588 1589 1589 1590 1591 1591 1592 1593 1593 1593 1594 1595 1594 1593 1592 1592 1591 1591 1589 1587 1585 1584 1584 1584
1544 1548 1553 1556 1560 1563 1565 1567 1571 1573 1575 1576 1577 1578 1579 1580 1580 1581 1582 1583 1585 1586 1586 1586 1587 1589 1589 1590 1590 1591 1591 1591 1590 1589 1588 1588 1588 1586 1585 1584 1584 1583 1582
1541 1544 1547 1551 1554 1557 1562 1563 1566 1568 1570 1573 1574 1575 1576 1577 1578 1578 1578 1579 1581 1581 1582 1581 1583 1585 1585 1586 1586 1587 1587 1586 1586 1586 1585 1584 1584 1583 1584 1584 1583 1582 1580
1537 1536 1542 1543 1543 1553 1556 1559 1560 1562 1564 1567 1569 1570 1571 1572 1574 1575 1574 1574 1576 1577 1578 1578 1578 1580 1581 1583 1583 1583 1583 1582 1581 1581 1581 1582 1581 1581 1580 1580 1580 1580 1579
1526 1524 1537 1540 1547 1550 1552 1554 1555 1557 1559 1562 1563 1563 1563 1567 1569 1571 1572 1572 1572 1573 1574 1575 1576 1577 1578 1578 1578 1578 1579 1579 1579 1578 1579 1579 1579 1579 1579 1579 1578 1577 1576
1530 1534 1536 1538 1541 1545 1548 1550 1552 1554 1556 1559 1559 1560 1562 1562 1563 1566 1567 1567 1568 1570 1570 1570 1572 1573 1573 1574 1575 1576 1576 1577 1577 1578 1578 1579 1578 1577 1577 1577 1575 1575 1574
1529 1532 1532 1541 1543 1545 1546 1546 1549 1552 1553 1555 1556 1557 1559 1561 1562 1562 1563 1564 1563 1565 1565 1567 1568 1570 1571 1572 1573 1574 1575 1576 1577 1577 1578 1577 1577 1575 1574 1574 1573 1572 1571
1530 1534 1537 1541 1543 1543 1544 1544 1545 1549 1552 1553 1554 1554 1555 1557 1558 1559 1560 1562 1562 1562 1562 1564 1565 1567 1567 1568 1571 1575 1575 1576 1576 1577 1577 1577 1576 1574 1572 1571 1570 1570 1568
1534 1537 1539 1542 1541 1544 1544 1545 1546 1547 1552 1553 1553 1554 1557 1556 1557 1558 1559 1561 1561 1561 1561 1561 1563 1566 1566 1567 1568 1568 1572 1576 1575 1575 1574 1576 1574 1572 1570 1569 1568 1567 1567
1534 1536 1539 1540 1541 1543 1544 1545 1545 1547 1550 1550 1550 1551 1554 1557 1557 1559 1559 1560 1560 1559 1562 1562 1563 1563 1564 1567 1569 1569 1569 1570 1571 1572 1571 1572 1572 1571 1569 1568 1567 1566 1565
1538 1538 1541 1542 1543 1542 1543 1544 1546 1548 1549 1549 1550 1551 1552 1555 1555 1555 1558 1560 1559 1561 1561 1562 1563 1565 1563 1566 1568 1569 1569 1570 1569 1568 1568 1569 1568 1567 1565 1565 1564 1562 1561
1538 1540 1541 1541 1543 1543 1544 1543 1545 1546 1547 1548 1549 1551 1552 1556 1556 1557 1558 1559 1557 1560 1562 1562 1563 1564 1565 1565 1565 1566 1565 1567 1567 1568 1566 1567 1566 1564 1563 1562 1561 1560 1558
1540 1542 1543 1544 1544 1544 1546 1547 1547 1547 1547 1547 1548 1551 1552 1552 1553 1554 1555 1557 1556 1555 1560 1563 1566 1565 1565 1564 1564 1563 1564 1564 1565 1566 1565 1566 1566 1563 1562 1561 1558 1556 1555
1541 1543 1544 1543 1543 1544 1545 1546 1547 1548 1548 1549 1550 1551 1549 1551 1550 1550 1550 1551 1553 1556 1556 1561 1562 1563 1564 1565 1564 1561 1563 1564 1564 1562 1564 1563 1562 1562 1559 1558 1556 1554 1551
1543 1544 1544 1544 1544 1544 1544 1544 1544 1546 1548 1549 1549 1550 1551 1551 1549 1547 1550 1551 1552 1554 1555 1558 1559 1559 1558 1560 1562 1560 1561 1562 1561 1561 1562 1562 1559 1557 1556 1556 1555 1553 1551
1542 1543 1543 1543 1543 1544 1544 1544 1545 1546 1547 1548 1548 1549 1550 1549 1548 1549 1550 1550 1551 1555 1555 1557 1556 1556 1555 1556 1557 1558 1558 1558 1558 1558 1559 1558 1556 1554 1553 1553 1553 1551 1549
1540 1541 1541 1540 1541 1542 1543 1544 1544 1544 1545 1545 1545 1546 1546 1546 1547 1548 1548 1548 1550 1553 1554 1554 1554 1553 1552 1552 1554 1558 1556 1555 1555 1553 1555 1555 1554 1551 1549 1549 1548 1546 1547
1537 1538 1538 1538 1539 1539 1540 1539 1539 1539 1540 1540 1541 1540 1541 1543 1544 1546 1547 1548 1550 1551 1551 1550 1549 1551 1551 1552 1554 1555 1555 1554 1553 1552 1552 1553 1551 1548 1547 1546 1546 1545 1544
1534 1534 1535 1535 1534 1535 1535 1535 1535 1536 1537 1537 1537 1538 1538 1540 1542 1543 1544 1546 1547 1548 1548 1548 1548 1549 1549 1551 1552 1553 1553 1552 1551 1551 1550 1549 1548 1546 1544 1544 1544 1543 1543
1530 1530 1531 1531 1530 1531 1531 1532 1532 1533 1534 1534 1535 1536 1537 1538 1540 1541 1542 1543 1545 1545 1546 1546 1546 1547 1548 1549 1549 1550 1550 1549 1550 1549 1548 1546 1545 1544 1543 1543 1543 1545 1545
1526 1526 1525 1525 1525 1525 1526 1526 1527 1528 1529 1530 1530 1531 1532 1533 1535 1537 1539 1540 1542 1543 1544 1544 1545 1546 1546 1546 1547 1548 1548 1548 1548 1547 1546 1545 1545 1544 1543 1544 1545 1545 1545